Chuuk International Airport

Airport
ICAO code: 
PTKK
IATA Code: 
TKK
Summary
ICAO Region: 
APAC
Location: 
Weno, Chuuk
Serving: 
Chuuk
Elevation: 
11 ft
Coordinates: 
Aerial View: 
7° 27' 42.984" N, 151° 50' 35.016" E
Metar
Observation
PTKK 260950Z 00000KT 15SM FEW012 BKN120 OVC280 26/23 A2983 RMK SLP105 T02560234
Station
Weno Island, Chuuk Int. Airp.
Date/Time
2022-05-26 09:50:00
Wind direction
Wind speed
00 kts
Lowest cloud amount
few clouds
Temperature
25.6°C
Dew point
23.4°C
Humidity
87%
Weather condition
n/a

Chuuk International Airport is an airport located on Weno (formerly Moen), the main island of the State of Chuuk (formerly Truk) in the Federated States of Micronesia.

Climatology

Tropical Savanna climate (Köppen climate classification Aw)

Runways

Designator Length Width Surface Rops
4/22 1831 46 ASP Yes/Yes
Airport map: 
Aerial View: 

Accidents and Serious Incidents at or in the vicinity of PTKK

SKYbrary Partners:

Safety knowledge contributed by: